When you browse on this site, cookies collect data to enhance your experience and personalize the content and advertising you see.
Visit our Privacy Policy to learn more. By continuing to use the site, you agree to this use of cookies and data.
  • In Lithuania
  • List of Countries
  • For 7 days
  • Water Temperature
  • Satellite Maps
  • Weather Map
  • Weather Widgets
  • user-avatar
    Login

    Hourly Weather Rassekino

    Today, 23 July, Tuesday

    Time Temperature Precipitation Wind Pressure Humidity
    00:00 +18°C° 0 mm 2 mps 745 mmHg 81%
    01:00 +18°C° 0.1 mm 2 mps 745 mmHg 83%
    02:00 +17°C° 0.1 mm 2 mps 745 mmHg 85%
    03:00 +18°C° 0 mm 1 mps 745 mmHg 91%
    04:00 +17°C° 1.2 mm 2 mps 744 mmHg 92%
    05:00 +17°C° 1.2 mm 2 mps 744 mmHg 93%
    06:00 +17°C° 1.2 mm 2 mps 744 mmHg 95%
    07:00 +18°C° 1.1 mm 3 mps 744 mmHg 93%
    08:00 +18°C° 1.1 mm 4 mps 744 mmHg 92%
    09:00 +19°C° 1.1 mm 5 mps 744 mmHg 91%
    10:00 +19°C° 0.2 mm 6 mps 744 mmHg 87%
    11:00 +20°C° 0.2 mm 7 mps 744 mmHg 84%
    12:00 +21°C° 0.2 mm 7 mps 744 mmHg 81%
    13:00 +22°C° 0.2 mm 6 mps 744 mmHg 81%
    14:00 +22°C° 0.2 mm 6 mps 743 mmHg 80%
    15:00 +22°C° 0.2 mm 5 mps 743 mmHg 80%
    16:00 +22°C° 0.4 mm 4 mps 743 mmHg 81%
    17:00 +22°C° 0.4 mm 3 mps 743 mmHg 81%
    18:00 +22°C° 0.4 mm 3 mps 743 mmHg 82%
    19:00 +21°C° 0.1 mm 2 mps 743 mmHg 85%
    20:00 +20°C° 0.1 mm 2 mps 743 mmHg 89%
    21:00 +18°C° 0.1 mm 2 mps 742 mmHg 92%
    22:00 +18°C° 0 mm 2 mps 742 mmHg 92%
    23:00 +18°C° 0 mm 1 mps 743 mmHg 93%

    Tomorrow, 24 July, Wednesday

    Time Temperature Precipitation Wind Pressure Humidity
    00:00 +18°C° 0 mm 1 mps 743 mmHg 93%
    01:00 +16°C° 0 mm 1 mps 743 mmHg 93%
    02:00 +16°C° 0 mm 1 mps 743 mmHg 93%
    03:00 +16°C° 0 mm 1 mps 743 mmHg 94%
    04:00 +16°C° 0 mm 1 mps 743 mmHg 93%
    05:00 +18°C° 0 mm 1 mps 743 mmHg 93%
    06:00 +18°C° 0 mm 1 mps 743 mmHg 92%
    07:00 +19°C° 0.4 mm 1 mps 743 mmHg 90%
    08:00 +20°C° 0.4 mm 1 mps 743 mmHg 87%
    09:00 +21°C° 0.4 mm 1 mps 743 mmHg 85%
    10:00 +20°C° 0.4 mm 2 mps 743 mmHg 86%
    11:00 +19°C° 0.4 mm 3 mps 743 mmHg 86%
    12:00 +19°C° 0.4 mm 3 mps 743 mmHg 87%
    13:00 +20°C° 0.3 mm 3 mps 743 mmHg 83%
    14:00 +20°C° 0.3 mm 3 mps 743 mmHg 80%
    15:00 +21°C° 0.3 mm 2 mps 743 mmHg 76%
    16:00 +21°C° 0.3 mm 2 mps 743 mmHg 79%
    17:00 +20°C° 0.3 mm 3 mps 743 mmHg 82%
    18:00 +20°C° 0.3 mm 3 mps 743 mmHg 85%
    19:00 +19°C° 0.1 mm 3 mps 743 mmHg 88%
    20:00 +18°C° 0.1 mm 2 mps 743 mmHg 90%
    21:00 +17°C° 0.1 mm 2 mps 743 mmHg 93%
    22:00 +18°C° 0 mm 1 mps 743 mmHg 92%
    23:00 +18°C° 0 mm 1 mps 743 mmHg 92%

    Day after tomorrow, 25 July, Thursday

    Time Temperature Precipitation Wind Pressure Humidity
    00:00 +15°C° 0 mm 0 mps 743 mmHg 91%
    01:00 +16°C° 0 mm 1 mps 743 mmHg 92%
    02:00 +16°C° 0 mm 1 mps 743 mmHg 93%
    03:00 +16°C° 0 mm 1 mps 743 mmHg 94%
    04:00 +16°C° 0 mm 1 mps 744 mmHg 94%
    05:00 +18°C° 0 mm 1 mps 744 mmHg 94%
    06:00 +18°C° 0 mm 1 mps 744 mmHg 94%
    07:00 +19°C° 0.2 mm 1 mps 744 mmHg 91%
    08:00 +20°C° 0.2 mm 1 mps 744 mmHg 88%
    09:00 +21°C° 0.2 mm 1 mps 744 mmHg 85%
    10:00 +20°C° 0.7 mm 2 mps 744 mmHg 83%
    11:00 +21°C° 0.7 mm 2 mps 744 mmHg 81%
    12:00 +23°C° 0.7 mm 2 mps 744 mmHg 79%
    13:00 +23°C° 1.2 mm 2 mps 744 mmHg 79%
    14:00 +22°C° 1.2 mm 3 mps 744 mmHg 80%
    15:00 +22°C° 1.2 mm 3 mps 744 mmHg 80%
    16:00 +22°C° 1 mm 3 mps 744 mmHg 82%
    17:00 +21°C° 1 mm 4 mps 744 mmHg 85%
    18:00 +21°C° 1 mm 4 mps 744 mmHg 87%
    19:00 +20°C° 0 mm 4 mps 744 mmHg 89%
    20:00 +19°C° 0 mm 3 mps 744 mmHg 91%
    21:00 +18°C° 0 mm 3 mps 744 mmHg 93%
    22:00 +18°C° 0.4 mm 3 mps 744 mmHg 93%
    23:00 +18°C° 0.4 mm 3 mps 744 mmHg 94%

    26 July, Friday

    Time Temperature Precipitation Wind Pressure Humidity
    00:00 +18°C° 0.4 mm 3 mps 744 mmHg 95%
    01:00 +18°C° 1.1 mm 3 mps 744 mmHg 95%
    02:00 +18°C° 1.1 mm 3 mps 744 mmHg 96%
    03:00 +18°C° 1.1 mm 3 mps 744 mmHg 96%
    04:00 +18°C° 0.8 mm 3 mps 744 mmHg 96%
    05:00 +18°C° 0.8 mm 3 mps 744 mmHg 97%
    06:00 +18°C° 0.8 mm 3 mps 745 mmHg 97%
    07:00 +19°C° 0.1 mm 4 mps 745 mmHg 93%
    08:00 +20°C° 0.1 mm 4 mps 745 mmHg 90%
    09:00 +21°C° 0.1 mm 5 mps 745 mmHg 86%
    10:00 +22°C° 0.2 mm 5 mps 744 mmHg 82%
    11:00 +23°C° 0.2 mm 5 mps 744 mmHg 78%
    12:00 +23°C° 0.2 mm 6 mps 744 mmHg 75%
    13:00 +24°C° 0.7 mm 6 mps 744 mmHg 75%
    14:00 +25°C° 0.7 mm 5 mps 744 mmHg 75%
    15:00 +25°C° 0.7 mm 5 mps 744 mmHg 76%
    16:00 +23°C° 1 mm 4 mps 744 mmHg 79%
    17:00 +22°C° 1 mm 3 mps 743 mmHg 82%
    18:00 +21°C° 1 mm 3 mps 743 mmHg 85%
    19:00 +21°C° 0.1 mm 2 mps 743 mmHg 87%
    20:00 +20°C° 0.1 mm 2 mps 743 mmHg 89%
    21:00 +20°C° 0.1 mm 1 mps 743 mmHg 91%
    22:00 +19°C° 0 mm 2 mps 743 mmHg 92%
    23:00 +19°C° 0 mm 3 mps 743 mmHg 93%

    27 July, Saturday

    Time Temperature Precipitation Wind Pressure Humidity
    00:00 +18°C° 0 mm 4 mps 743 mmHg 93%
    01:00 +18°C° 0 mm 4 mps 743 mmHg 94%
    02:00 +18°C° 0 mm 4 mps 743 mmHg 95%
    03:00 +17°C° 0 mm 3 mps 742 mmHg 95%
    04:00 +17°C° 0.1 mm 3 mps 742 mmHg 95%
    05:00 +17°C° 0.1 mm 3 mps 742 mmHg 95%
    06:00 +17°C° 0.1 mm 3 mps 742 mmHg 95%
    07:00 +19°C° 0.1 mm 4 mps 742 mmHg 93%
    08:00 +20°C° 0.1 mm 4 mps 742 mmHg 90%
    09:00 +21°C° 0.1 mm 5 mps 742 mmHg 87%
    10:00 +22°C° 0.2 mm 5 mps 742 mmHg 83%
    11:00 +23°C° 0.2 mm 5 mps 742 mmHg 79%
    12:00 +23°C° 0.2 mm 6 mps 742 mmHg 75%
    13:00 +25°C° 0.3 mm 5 mps 742 mmHg 74%
    14:00 +25°C° 0.3 mm 5 mps 742 mmHg 73%
    15:00 +25°C° 0.3 mm 5 mps 741 mmHg 72%
    16:00 +25°C° 0.2 mm 4 mps 741 mmHg 74%
    17:00 +25°C° 0.2 mm 3 mps 741 mmHg 76%
    18:00 +25°C° 0.2 mm 3 mps 741 mmHg 78%
    19:00 +23°C° 0.2 mm 2 mps 741 mmHg 81%
    20:00 +22°C° 0.2 mm 1 mps 741 mmHg 84%
    21:00 +21°C° 0.2 mm 1 mps 741 mmHg 86%
    22:00 +20°C° 0 mm 1 mps 740 mmHg 88%
    23:00 +19°C° 0 mm 2 mps 740 mmHg 89%

    28 July, Sunday

    Time Temperature Precipitation Wind Pressure Humidity
    00:00 +18°C° 0 mm 2 mps 740 mmHg 91%
    01:00 +18°C° 0 mm 2 mps 740 mmHg 92%
    02:00 +18°C° 0 mm 2 mps 739 mmHg 93%
    03:00 +17°C° 0 mm 2 mps 739 mmHg 94%
    04:00 +18°C° 0 mm 3 mps 739 mmHg 94%
    05:00 +18°C° 0 mm 3 mps 738 mmHg 93%
    06:00 +18°C° 0 mm 3 mps 738 mmHg 93%
    07:00 +18°C° 0.1 mm 4 mps 738 mmHg 92%
    08:00 +19°C° 0.1 mm 5 mps 738 mmHg 92%
    09:00 +19°C° 0.1 mm 6 mps 738 mmHg 91%
    10:00 +17°C° 0.1 mm 6 mps 739 mmHg 89%
    11:00 +16°C° 0.1 mm 6 mps 739 mmHg 87%
    12:00 +15°C° 0.1 mm 7 mps 739 mmHg 85%
    13:00 +16°C° 0 mm 7 mps 739 mmHg 80%
    14:00 +16°C° 0 mm 7 mps 739 mmHg 75%
    15:00 +16°C° 0 mm 7 mps 740 mmHg 69%
    16:00 +15°C° 0 mm 7 mps 740 mmHg 69%
    17:00 +15°C° 0 mm 7 mps 740 mmHg 69%
    18:00 +14°C° 0 mm 7 mps 740 mmHg 69%
    19:00 +13°C° 0 mm 6 mps 741 mmHg 69%
    20:00 +11°C° 0 mm 6 mps 741 mmHg 69%
    21:00 +10°C° 0 mm 5 mps 741 mmHg 68%
    22:00 +10°C° 0 mm 5 mps 741 mmHg 67%
    23:00 +11°C° 0 mm 4 mps 741 mmHg 66%
    Show more